7 * 24
多渠道服务支持
STARLINK-37028(NORAD编号68270)是美国SpaceX公司星链星座的低轨通信卫星,隶属于Starlink全球互联网项目。该卫星运行在近地轨道,属于星链大规模组网中的一颗节点卫星,星链项目计划总共部署约4.2万颗低轨卫星,旨在为全球提供高速低延迟卫星互联网服务,尤其覆盖传统网络难以抵达的偏远地区。星链卫星普遍采用氪离子推进与自主碰撞规避技术,STARLINK-37028也延续这类标准化设计,可支持家庭及商业通信服务,同时星链的大规模部署也引发太空拥堵与天文观测影响的争议。
美国
(US)
| 数据来源 | 国际轨道数据 |
| 星历时间: | 2026-09-11T13:05:22+0800 15小时前 查看轨道信息 |
| 半长轴: | 6840.812km |
| 偏心率: | 0.0001575 |
| 轨道倾角: | 53.158° |
| 近地点辐角 | 89.852° |
| 升交点赤经 | 174.815° |
| 平近点角 | 270.267° |
| 近地点: | 461.597km |
| 远地点: | 463.753km |
| 周期: | 93.847分钟 |
| 每日圈数: | 15.344096 |